Miami Beach, Florida, United States (33109)
Lat: 25.79N, Lon: 80.13W
Wx Zone: FLZ173
Local Info
Past Weather Observations for Sunday, September 21, 2014

NOTE: This archive is for the closest National Weather Service station to Miami Beach. Information may differ from the station used for current weather conditions.

Click here for Long-term Archive

Time Weather Temperature Dewpoint Humidity Pressure Winds Precip Visibility
23:53
Overcast
79°F / 26°C 72°F / 22°C 79% 30.04 in
(1017 mb)
Calm - 10SM
22:53
Overcast
77°F / 25°C 72°F / 22°C 83% 30.04 in
(1017 mb)
Calm - 10SM
21:53
Overcast
77°F / 25°C 72°F / 22°C 83% 30.06 in
(1018 mb)
Calm 0.00 in
(0.00 mm)
10SM
20:53
Overcast
Light Rain
79°F / 26°C 68°F / 20°C 70% 30.04 in
(1017 mb)
Calm 0.00 in
(0.00 mm)
10SM
20:49
Overcast
77°F / 25°C 70°F / 21°C 79% 30.04 in
(1017 mb)
Calm 0.00 in
(0.00 mm)
10SM
20:04
Overcast
Thunder Storms
79°F / 26°C 73°F / 23°C 84% 30.06 in
(1018 mb)
NW 9.2 mph
(NW 15 kph)
0.00 in
(0.00 mm)
10SM
19:53
Mostly Cloudy
Cumulonimbus Clouds Observed
81°F / 27°C 73°F / 23°C 79% 30.04 in
(1017 mb)
NW 9.2 mph
(NW 15 kph)
0.00 in
(0.00 mm)
10SM
18:53
Mostly Cloudy
81°F / 27°C 75°F / 24°C 84% 30.01 in
(1016 mb)
Calm 0.02 in
(0.51 mm)
10SM
17:53
Mostly Cloudy
81°F / 27°C 73°F / 23°C 79% 29.98 in
(1015 mb)
SSE 5.8 mph
(SSE 9 kph)
0.00 in
(0.00 mm)
10SM
16:53
Mostly Cloudy
Light Rain
84°F / 29°C 73°F / 23°C 70% 29.98 in
(1015 mb)
SSE 8.1 mph
(SSE 13 kph)
0.00 in
(0.00 mm)
10SM
15:53
Mostly Cloudy
86°F / 30°C 72°F / 22°C 62% 29.98 in
(1015 mb)
SE 9.2 mph
(SE 15 kph)
- 10SM
14:53
Mostly Cloudy
86°F / 30°C 73°F / 23°C 66% 29.98 in
(1015 mb)
SE 6.9 mph
(SE 11 kph)
- 10SM
13:53
Mostly Cloudy
88°F / 31°C 73°F / 23°C 62% 29.98 in
(1015 mb)
SE 6.9 mph
(SE 11 kph)
- 10SM
12:53
Mostly Cloudy
86°F / 30°C 70°F / 21°C 59% 30.01 in
(1016 mb)
Variable 3.5 mph
(Variable 6 kph)
- 10SM
11:53
Mostly Cloudy
88°F / 31°C 72°F / 22°C 59% 30.01 in
(1016 mb)
Variable 3.5 mph
(Variable 6 kph)
- 10SM
10:53
Mostly Cloudy
86°F / 30°C 70°F / 21°C 59% 30.01 in
(1016 mb)
Calm - 10SM
09:53
Mostly Cloudy
84°F / 29°C 66°F / 19°C 55% 30.04 in
(1017 mb)
W 3.5 mph
(W 6 kph)
- 10SM
08:53
Mostly Cloudy
81°F / 27°C 72°F / 22°C 74% 30.04 in
(1017 mb)
NNW 3.5 mph
(NNW 6 kph)
- 10SM
07:53
Mostly Cloudy
79°F / 26°C 72°F / 22°C 79% 30.01 in
(1016 mb)
Calm - 10SM
06:53
Mostly Cloudy
75°F / 24°C 72°F / 22°C 89% 30.01 in
(1016 mb)
Calm - 10SM
05:53
Mostly Cloudy
73°F / 23°C 72°F / 22°C 94% 29.98 in
(1015 mb)
Calm - 10SM
04:53
Mostly Cloudy
73°F / 23°C 72°F / 22°C 94% 29.95 in
(1014 mb)
Calm - 10SM
03:53
Mostly Cloudy
73°F / 23°C 72°F / 22°C 94% 29.95 in
(1014 mb)
NW 3.5 mph
(NW 6 kph)
- 10SM
02:53
Partly Cloudy
73°F / 23°C 72°F / 22°C 94% 29.95 in
(1014 mb)
SSW 4.6 mph
(SSW 7 kph)
- 10SM
01:53
Partly Cloudy
75°F / 24°C 72°F / 22°C 89% 29.98 in
(1015 mb)
SW 3.5 mph
(SW 6 kph)
- 10SM
00:53
Partly Cloudy
75°F / 24°C 72°F / 22°C 89% 29.98 in
(1015 mb)
Calm - 10SM
Time Weather Temperature Dewpoint Humidity Pressure Winds Precip Visibility


Weather for websites

WeatherForYou.com, LLC is not responsible for any damages or problems caused by this service. Current weather conditions are obtained from the closest station including government and personal stations which may have varying degrees of accuracy. Weather forecasts are derived from the NOAA NDFD. Like all things, this site belongs to Jesus Christ... He just trusts me to maintain it. If you have any questions or comments email webmaster@weatherforyou.com

Copyright © 2014, WeatherForYou.com LLC. All rights reserved.